Weather History for Cooperstown, ND

Change the Weather History Date:

Thursday, October 10, 2013

  Actual Average (KJMS) Record (KJMS)
Temperature  
Mean Temperature 56 °F 47 °F  
Max Temperature 68 °F 59 °F 86 °F (1955)
Min Temperature 44 °F 35 °F 11 °F (1935)
Degree Days  
Heating Degree Days 9 18  
Month to date heating degree days 162  
Since 1 July heating degree days 480  
Cooling Degree Days 0 0  
Month to date cooling degree days 0  
Year to date cooling degree days 445  
Growing Degree Days 6 (Base 50)    
Moisture  
Dew Point 51 °F    
Average Humidity 83    
Maximum Humidity 100    
Minimum Humidity 60    
Precipitation  
Precipitation 0.00 in 0.05 in 1.45 in (1949)
Month to date precipitation 0.57  
Year to date precipitation 16.76  
Sea Level Pressure  
Sea Level Pressure 29.81 in    
Wind  
Wind Speed 8 mph (East)    
Max Wind Speed 14 mph    
Max Gust Speed 20 mph    
Visibility 10 miles    
Events Rain    
T = Trace of Precipitation, MM = Missing Value Source: NWS Daily Summary

Daily Weather History Graph

Daily Weather History Graph

Search for Another Location

Airport:

Trip Planner

Search our weather history database for the weather conditions in past years. The results will help you decide how hot, cold, wet, or windy it might be!

Date:

Astronomy

Oct. 10, 2013 Rise Set
Actual Time 7:44 AM CDT 6:53 PM CDT
Civil Twilight 7:13 AM CDT 7:24 PM CDT
Nautical Twilight 6:37 AM CDT 7:59 PM CDT
Astronomical Twilight 6:02 AM CDT 8:35 PM CDT
Moon 1:52 PM CDT (10/10) 11:18 PM CDT (10/10)
Length of Visible Light 12h 10m
Length of Day
11h 09m
Waxing Crescent, 36% of the Moon is Illuminated
Oct 10
Waxing Crescent
Oct 11
First Quarter
Oct 18
Full
Oct 26
Last Quarter
Nov 3
New

Hourly Weather History & Observations

Time (CDT) Temp. Windchill Dew Point Humidity Pressure Visibility Wind Dir Wind Speed Gust Speed Precip Events Conditions
12:15 AM 46.4 °F 41.9 °F 46.4 °F 100% 29.97 in 10.0 mi North 9.2 mph - N/A   Clear
12:35 AM 46.4 °F 42.9 °F 44.6 °F 93% 29.97 in 10.0 mi North 6.9 mph - N/A   Clear
12:55 AM 46.4 °F 43.5 °F 46.4 °F 100% 29.96 in 10.0 mi NNE 5.8 mph - N/A   Clear
1:15 AM 46.4 °F 42.9 °F 44.6 °F 93% 29.96 in 10.0 mi NNE 6.9 mph - N/A   Clear
1:35 AM 46.4 °F 43.5 °F 44.6 °F 93% 29.96 in 10.0 mi North 5.8 mph - N/A   Clear
1:55 AM 46.4 °F 41.9 °F 44.6 °F 93% 29.95 in 10.0 mi North 9.2 mph - N/A   Clear
2:15 AM 44.6 °F 40.7 °F 44.6 °F 100% 29.95 in 10.0 mi North 6.9 mph - N/A   Clear
2:35 AM 44.6 °F 41.4 °F 44.6 °F 100% 29.94 in 10.0 mi North 5.8 mph - N/A   Clear
2:55 AM 46.4 °F 42.9 °F 44.6 °F 93% 29.94 in 10.0 mi North 6.9 mph - N/A   Clear
3:15 AM 46.4 °F 42.9 °F 44.6 °F 93% 29.93 in 10.0 mi NE 6.9 mph - N/A   Clear
3:35 AM 48.2 °F - 46.4 °F 93% 29.92 in 10.0 mi NE 8.1 mph - N/A   Clear
3:55 AM 50.0 °F - 46.4 °F 87% 29.91 in 10.0 mi NE 8.1 mph - N/A   Clear
4:15 AM 50.0 °F - 46.4 °F 87% 29.91 in 10.0 mi NE 8.1 mph - N/A   Clear
4:35 AM 50.0 °F - 46.4 °F 87% 29.91 in 10.0 mi NE 10.4 mph - N/A   Clear
4:55 AM 51.8 °F - 46.4 °F 82% 29.90 in 10.0 mi NE 10.4 mph - N/A   Clear
5:15 AM 50.0 °F - 46.4 °F 87% 29.89 in 10.0 mi NNE 10.4 mph - N/A   Clear
5:35 AM 48.2 °F - 46.4 °F 93% 29.89 in 10.0 mi NE 8.1 mph - N/A   Clear
5:55 AM 50.0 °F - 44.6 °F 82% 29.89 in 10.0 mi NE 10.4 mph - N/A   Scattered Clouds
6:15 AM 53.6 °F - 44.6 °F 72% 29.88 in 10.0 mi NNE 9.2 mph - N/A   Mostly Cloudy
6:35 AM 53.6 °F - 44.6 °F 72% 29.87 in 10.0 mi NE 9.2 mph - N/A   Overcast
6:55 AM 50.0 °F - 46.4 °F 87% 29.86 in 10.0 mi NNE 10.4 mph - N/A   Overcast
7:15 AM 50.0 °F - 46.4 °F 87% 29.86 in 10.0 mi NNE 6.9 mph - N/A   Overcast
7:35 AM 50.0 °F - 46.4 °F 87% 29.86 in 10.0 mi NE 6.9 mph - N/A   Mostly Cloudy
7:55 AM 50.0 °F - 46.4 °F 87% 29.85 in 10.0 mi NNE 9.2 mph - N/A   Mostly Cloudy
8:15 AM 50.0 °F - 46.4 °F 87% 29.84 in 10.0 mi NE 9.2 mph - N/A   Overcast
8:35 AM 50.0 °F - 46.4 °F 87% 29.84 in 10.0 mi NE 9.2 mph - N/A   Overcast
8:55 AM 50.0 °F - 46.4 °F 87% 29.85 in 10.0 mi ENE 8.1 mph - N/A   Overcast
9:15 AM 50.0 °F - 46.4 °F 87% 29.85 in 10.0 mi ENE 9.2 mph - N/A   Mostly Cloudy
9:35 AM 50.0 °F - 46.4 °F 87% 29.85 in 10.0 mi NE 10.4 mph - N/A   Mostly Cloudy
9:55 AM 51.8 °F - 48.2 °F 88% 29.84 in 10.0 mi ENE 8.1 mph - N/A   Mostly Cloudy
10:15 AM 53.6 °F - 48.2 °F 82% 29.84 in 10.0 mi ENE 10.4 mph - N/A   Partly Cloudy
10:35 AM 53.6 °F - 48.2 °F 82% 29.83 in 10.0 mi NE 11.5 mph - N/A   Clear
10:55 AM 55.4 °F - 50.0 °F 82% 29.82 in 10.0 mi East 11.5 mph - N/A   Clear
11:15 AM 57.2 °F - 50.0 °F 77% 29.82 in 10.0 mi East 9.2 mph - N/A   Clear
11:35 AM 57.2 °F - 50.0 °F 77% 29.81 in 10.0 mi East 10.4 mph - N/A   Clear
11:55 AM 57.2 °F - 50.0 °F 77% 29.81 in 10.0 mi East 9.2 mph - N/A   Clear
12:15 PM 59.0 °F - 51.8 °F 77% 29.80 in 10.0 mi East 8.1 mph - N/A   Clear
12:35 PM 60.8 °F - 51.8 °F 72% 29.79 in 10.0 mi East 10.4 mph - N/A   Clear
12:55 PM 62.6 °F - 53.6 °F 72% 29.79 in 10.0 mi East 9.2 mph - N/A   Clear
1:15 PM 62.6 °F - 53.6 °F 72% 29.78 in 10.0 mi ESE 8.1 mph - N/A   Clear
1:35 PM 64.4 °F - 53.6 °F 68% 29.77 in 10.0 mi ESE 9.2 mph - N/A   Clear
1:55 PM 66.2 °F - 53.6 °F 64% 29.76 in 10.0 mi SE 10.4 mph - N/A   Clear
2:15 PM 66.2 °F - 53.6 °F 64% 29.76 in 10.0 mi SE 10.4 mph 16.1 mph N/A   Clear
2:35 PM 68.0 °F - 53.6 °F 60% 29.75 in 10.0 mi ESE 12.7 mph - N/A   Clear
2:55 PM 68.0 °F - 53.6 °F 60% 29.75 in 10.0 mi SSE 13.8 mph 19.6 mph N/A Rain Light Rain
3:15 PM 68.0 °F - 53.6 °F 60% 29.75 in 10.0 mi SSE 13.8 mph - N/A Rain Light Rain
3:35 PM 68.0 °F - 53.6 °F 60% 29.74 in 10.0 mi South 13.8 mph 17.3 mph N/A Rain Light Rain
3:55 PM 68.0 °F - 53.6 °F 60% 29.73 in 10.0 mi SE 11.5 mph - N/A   Clear
4:15 PM 68.0 °F - 53.6 °F 60% 29.73 in 10.0 mi South 11.5 mph 18.4 mph N/A   Clear
4:35 PM 68.0 °F - 53.6 °F 60% 29.73 in 10.0 mi SSE 12.7 mph - N/A   Clear
4:55 PM 66.2 °F - 55.4 °F 68% 29.73 in 10.0 mi SSE 12.7 mph 19.6 mph N/A   Clear
5:15 PM 66.2 °F - 55.4 °F 68% 29.72 in 10.0 mi SE 8.1 mph - N/A Rain Light Rain
5:35 PM 66.2 °F - 55.4 °F 68% 29.73 in 10.0 mi SSE 12.7 mph 17.3 mph N/A   Clear
5:55 PM 66.2 °F - 55.4 °F 68% 29.72 in 10.0 mi SSE 9.2 mph - N/A   Clear
6:15 PM 64.4 °F - 55.4 °F 73% 29.72 in 10.0 mi SE 6.9 mph - N/A   Clear
6:35 PM 62.6 °F - 55.4 °F 77% 29.72 in 10.0 mi SE 5.8 mph - N/A   Clear
6:55 PM 60.8 °F - 55.4 °F 82% 29.72 in 10.0 mi ESE 6.9 mph - N/A   Clear
7:15 PM 60.8 °F - 55.4 °F 82% 29.72 in 10.0 mi ESE 8.1 mph - N/A   Clear
7:35 PM 59.0 °F - 55.4 °F 88% 29.71 in 10.0 mi East 5.8 mph - N/A   Clear
7:55 PM 57.2 °F - 55.4 °F 94% 29.71 in 10.0 mi East 4.6 mph - N/A   Clear
8:15 PM 57.2 °F - 55.4 °F 94% 29.71 in 10.0 mi East 5.8 mph - N/A   Clear
8:35 PM 57.2 °F - 55.4 °F 94% 29.70 in 10.0 mi East 4.6 mph - N/A   Clear
8:55 PM 57.2 °F - 55.4 °F 94% 29.70 in 10.0 mi ESE 5.8 mph - N/A   Clear
9:15 PM 57.2 °F - 55.4 °F 94% 29.69 in 10.0 mi East 4.6 mph - N/A   Clear
9:35 PM 57.2 °F - 55.4 °F 94% 29.69 in 10.0 mi ESE 5.8 mph - N/A   Clear
9:55 PM 59.0 °F - 57.2 °F 94% 29.69 in 10.0 mi ESE 6.9 mph - N/A   Clear
10:15 PM 57.2 °F - 55.4 °F 94% 29.69 in 10.0 mi SE 4.6 mph - N/A   Clear
10:35 PM 57.2 °F - 55.4 °F 94% 29.68 in 10.0 mi East 5.8 mph - N/A   Clear
10:55 PM 57.2 °F - 55.4 °F 94% 29.69 in 10.0 mi ESE 8.1 mph - N/A   Clear
11:15 PM 57.2 °F - 55.4 °F 94% 29.68 in 10.0 mi ESE 4.6 mph - N/A   Clear
11:35 PM 57.2 °F - 55.4 °F 94% 29.67 in 10.0 mi ESE 4.6 mph - N/A   Clear
11:55 PM 57.2 °F - 57.2 °F 100% 29.68 in 10.0 mi SE 5.8 mph - N/A   Clear